TimeCEST,TemperatureF,Dew PointF,Humidity,Sea Level PressureIn,VisibilityMPH,Wind Direction,Wind SpeedMPH,Gust SpeedMPH,PrecipitationIn,Events,Conditions,WindDirDegrees,DateUTC
12:20 AM,71.6,62.6,73,29.98,-9999.0,ENE,3.5,-,N/A,,Clear,60,2013-07-09 22:20:00
12:50 AM,71.6,62.6,73,29.98,-9999.0,East,3.5,-,N/A,,Clear,80,2013-07-09 22:50:00
1:20 AM,71.6,62.6,73,30.01,-9999.0,Variable,1.2,-,N/A,,Clear,0,2013-07-09 23:20:00
1:50 AM,71.6,62.6,73,29.98,-9999.0,NE,2.3,-,N/A,,Clear,40,2013-07-09 23:50:00
2:20 AM,69.8,62.6,78,29.98,-9999.0,ENE,2.3,-,N/A,,Clear,70,2013-07-10 00:20:00
2:50 AM,68.0,62.6,83,29.98,-9999.0,Variable,2.3,-,N/A,,Clear,0,2013-07-10 00:50:00
3:20 AM,68.0,62.6,83,29.98,-9999.0,Variable,2.3,-,N/A,,Clear,0,2013-07-10 01:20:00
3:50 AM,68.0,62.6,83,29.98,-9999.0,ENE,2.3,-,N/A,,Clear,70,2013-07-10 01:50:00
4:20 AM,68.0,62.6,83,29.98,-9999.0,Calm,Calm,-,N/A,,Clear,0,2013-07-10 02:20:00
4:50 AM,66.2,62.6,88,29.98,-9999.0,Variable,1.2,-,N/A,,Clear,0,2013-07-10 02:50:00
5:20 AM,68.0,62.6,83,29.95,-9999.0,SSE,2.3,-,N/A,,Clear,160,2013-07-10 03:20:00
5:50 AM,66.2,60.8,83,29.98,-9999.0,Variable,2.3,-,N/A,,Clear,0,2013-07-10 03:50:00
6:20 AM,66.2,62.6,88,29.98,-9999.0,Variable,2.3,-,N/A,,Clear,0,2013-07-10 04:20:00
6:50 AM,69.8,64.4,83,29.98,-9999.0,Variable,1.2,-,N/A,,Clear,0,2013-07-10 04:50:00
7:20 AM,71.6,64.4,78,29.98,-9999.0,Variable,1.2,-,N/A,,Clear,0,2013-07-10 05:20:00
7:50 AM,75.2,64.4,69,29.98,-9999.0,Calm,Calm,-,N/A,,Clear,0,2013-07-10 05:50:00
8:20 AM,75.2,62.6,65,29.98,-9999.0,Variable,1.2,-,N/A,,Clear,0,2013-07-10 06:20:00
8:50 AM,77.0,62.6,61,29.98,-9999.0,Calm,Calm,-,N/A,,Clear,0,2013-07-10 06:50:00
9:50 AM,78.8,64.4,61,29.95,-9999.0,Variable,2.3,-,N/A,,Clear,0,2013-07-10 07:50:00
10:20 AM,80.6,64.4,58,29.95,-9999.0,Variable,2.3,-,N/A,,Clear,0,2013-07-10 08:20:00
10:50 AM,82.4,64.4,54,29.95,-9999.0,Variable,3.5,-,N/A,,Clear,0,2013-07-10 08:50:00
11:20 AM,84.2,62.6,48,29.95,-9999.0,Variable,3.5,-,N/A,,Clear,0,2013-07-10 09:20:00
11:50 AM,86.0,60.8,43,29.92,6.2,Variable,2.3,-,N/A,,Partly Cloudy,0,2013-07-10 09:50:00
12:20 PM,89.6,60.8,38,29.92,6.2,Variable,3.5,-,N/A,,Partly Cloudy,0,2013-07-10 10:20:00
12:50 PM,87.8,62.6,43,29.92,6.2,NW,4.6,-,N/A,,Partly Cloudy,320,2013-07-10 10:50:00
1:20 PM,84.2,62.6,48,29.92,6.2,NW,6.9,-,N/A,,Partly Cloudy,310,2013-07-10 11:20:00
1:50 PM,86.0,59.0,40,29.89,6.2,WNW,6.9,-,N/A,,Partly Cloudy,300,2013-07-10 11:50:00
2:20 PM,89.6,59.0,36,29.89,6.2,West,6.9,-,N/A,,Scattered Clouds,280,2013-07-10 12:20:00
2:50 PM,91.4,59.0,34,29.86,6.2,Variable,4.6,-,N/A,Thunderstorm,Scattered Clouds,0,2013-07-10 12:50:00
3:20 PM,91.4,57.2,31,29.86,6.2,Variable,4.6,-,N/A,,Scattered Clouds,0,2013-07-10 13:20:00
3:50 PM,91.4,59.0,34,29.86,6.2,NW,5.8,-,N/A,,Scattered Clouds,310,2013-07-10 13:50:00
4:20 PM,89.6,59.0,36,29.86,6.2,Variable,5.8,-,N/A,,Scattered Clouds,0,2013-07-10 14:20:00
4:50 PM,69.8,66.2,88,29.92,0.3,SSE,15.0,56.4,N/A,Rain-Hail-Thunderstorm,Heavy Thunderstorms with Hail,160,2013-07-10 14:50:00
5:20 PM,75.2,66.2,73,29.86,6.2,SSW,10.4,-,N/A,Rain,Light Rain,210,2013-07-10 15:20:00
5:50 PM,75.2,69.8,83,29.86,6.2,East,4.6,-,N/A,Thunderstorm,Scattered Clouds,100,2013-07-10 15:50:00
6:20 PM,77.0,71.6,83,29.86,6.2,Variable,2.3,-,N/A,,Scattered Clouds,0,2013-07-10 16:20:00
6:50 PM,75.2,69.8,83,29.86,6.2,ESE,6.9,-,N/A,,Partly Cloudy,110,2013-07-10 16:50:00
7:20 PM,75.2,68.0,78,29.86,6.2,East,10.4,-,N/A,,Partly Cloudy,100,2013-07-10 17:20:00
8:00 PM,76,67,68,29.87,6,East,6.9,,,,Partly Cloudy,80,2013-07-10 18:00:00
8:20 PM,75.2,68.0,78,29.86,6.2,East,4.6,-,N/A,,Partly Cloudy,90,2013-07-10 18:20:00
8:50 PM,75.2,68.0,78,29.86,6.2,East,5.8,-,N/A,,Partly Cloudy,100,2013-07-10 18:50:00
9:20 PM,75.2,68.0,78,29.86,6.2,East,4.6,-,N/A,,Partly Cloudy,90,2013-07-10 19:20:00
9:50 PM,73.4,68.0,83,29.89,-9999.0,SE,3.5,-,N/A,,Clear,130,2013-07-10 19:50:00
10:20 PM,71.6,68.0,88,29.89,-9999.0,East,5.8,-,N/A,,Clear,80,2013-07-10 20:20:00
10:50 PM,73.4,66.2,78,29.89,-9999.0,East,5.8,-,N/A,,Clear,90,2013-07-10 20:50:00
11:00 PM,72,67,81,29.90,6,East,5.8,,,,Scattered Clouds,100,2013-07-10 21:00:00
11:20 PM,71.6,68.0,88,29.89,-9999.0,East,5.8,-,N/A,,Clear,90,2013-07-10 21:20:00
11:50 PM,71.6,66.2,83,29.89,-9999.0,East,4.6,-,N/A,,Clear,90,2013-07-10 21:50:00